This is the latest recevied weather packets stored in our database for station/object KQ4OSL. If no packets are shown the sender has not sent any weather packets the latest 10 day(s).
| Time | Temp. | Humidity | Pressure | Rain* | Wind** | Luminosity | Snow |
|---|---|---|---|---|---|---|---|
| 1777128290 | 16.67° C | 99% | 1012.9 hPa | 0 mm | - | 48 W/m² | - |
| 1777127988 | 16.67° C | 99% | 1012.8 hPa | 0 mm | - | 63 W/m² | - |
| 1777127685 | 16.67° C | 99% | 1012.7 hPa | 0 mm | - | 78 W/m² | - |
| 1777127382 | 16.67° C | 99% | 1012.7 hPa | 0 mm | - | 69 W/m² | - |
| 1777127078 | 16.67° C | 99% | 1012.7 hPa | 0 mm | - | 62 W/m² | - |
| 1777126774 | 16.67° C | 99% | 1012.6 hPa | 1.78 mm | - | 62 W/m² | - |
| 1777126471 | 16.67° C | 99% | 1012.5 hPa | 3.05 mm | - | 66 W/m² | - |
| 1777126166 | 16.11° C | 99% | 1012.6 hPa | 3.05 mm | - | 60 W/m² | - |
| 1777125862 | 16.11° C | 99% | 1012.6 hPa | 3.05 mm | - | 55 W/m² | - |
| 1777125559 | 16.11° C | 99% | 1012.7 hPa | 4.83 mm | - | 49 W/m² | - |
| 1777125254 | 16.11° C | 99% | 1013 hPa | 10.67 mm | - | 48 W/m² | - |
| 1777124954 | 16.11° C | 99% | 1012.6 hPa | 14.99 mm | - | 43 W/m² | - |
| 1777124651 | 16.11° C | 99% | 1013 hPa | 11.94 mm | - | 34 W/m² | - |
| 1777124346 | 16.11° C | 99% | 1012.8 hPa | 9.65 mm | - | 31 W/m² | - |
| 1777124044 | 16.11° C | 99% | 1012.8 hPa | 8.89 mm | - | 34 W/m² | - |
| 1777123740 | 16.11° C | 99% | 1012.9 hPa | 8.89 mm | - | 30 W/m² | - |
| 1777123436 | 16.11° C | 99% | 1012.7 hPa | 7.87 mm | - | 28 W/m² | - |
| 1777123132 | 16.11° C | 99% | 1012.7 hPa | 11.94 mm | - | 22 W/m² | - |
| 1777122829 | 16.11° C | 99% | 1012.7 hPa | 25.91 mm | - | 18 W/m² | - |
| 1777122525 | 16.11° C | 99% | 1012.6 hPa | 23.88 mm | - | 29 W/m² | - |
| 1777122221 | 16.67° C | 99% | 1012.8 hPa | 16.76 mm | - | 23 W/m² | - |
| 1777121917 | 16.67° C | 99% | 1012.9 hPa | 19.81 mm | - | 14 W/m² | - |
| 1777121614 | 16.67° C | 99% | 1012.6 hPa | 25.91 mm | - | 15 W/m² | - |
| 1777121310 | 16.67° C | 99% | 1012.8 hPa | 16.76 mm | - | 14 W/m² | - |
| 1777121007 | 16.67° C | 98% | 1012.8 hPa | 0 mm | - | 8 W/m² | - |
* Rain latest hour (hover to see other rain measurements)
** Current wind speed in m/s (hover to see current wind gust speed)